TimeCDT,TemperatureF,Dew PointF,Humidity,Sea Level PressureIn,VisibilityMPH,Wind Direction,Wind SpeedMPH,Gust SpeedMPH,PrecipitationIn,Events,Conditions,WindDirDegrees,DateUTC
12:53 AM,41.0,30.9,67,30.15,10.0,SSW,8.1,-,N/A,,Clear,200,2012-10-11 05:53:00
1:53 AM,41.0,32.0,70,30.15,10.0,SSW,9.2,-,N/A,,Clear,200,2012-10-11 06:53:00
2:53 AM,41.0,32.0,70,30.14,10.0,SSW,9.2,-,N/A,,Clear,200,2012-10-11 07:53:00
3:53 AM,41.0,32.0,70,30.15,10.0,South,8.1,-,N/A,,Clear,190,2012-10-11 08:53:00
4:53 AM,39.0,32.0,76,30.15,10.0,South,8.1,-,N/A,,Clear,190,2012-10-11 09:53:00
5:53 AM,39.9,32.0,73,30.14,10.0,SSW,8.1,-,N/A,,Clear,200,2012-10-11 10:53:00
6:53 AM,41.0,32.0,70,30.14,10.0,SSW,10.4,-,N/A,,Clear,210,2012-10-11 11:53:00
7:53 AM,41.0,33.1,73,30.16,10.0,SSW,10.4,-,N/A,,Clear,210,2012-10-11 12:53:00
8:53 AM,46.9,35.1,63,30.15,10.0,SSW,12.7,-,N/A,,Clear,200,2012-10-11 13:53:00
9:53 AM,51.8,35.6,54,30.15,10.0,SSW,13.8,20.7,N/A,,Clear,210,2012-10-11 14:53:00
10:53 AM,57.9,37.9,47,30.15,10.0,SSW,16.1,-,N/A,,Clear,210,2012-10-11 15:53:00
11:53 AM,61.0,37.0,41,30.12,10.0,SW,16.1,-,N/A,,Clear,220,2012-10-11 16:53:00
12:53 PM,64.9,37.9,37,30.11,10.0,SW,13.8,-,N/A,,Clear,230,2012-10-11 17:53:00
1:53 PM,68.0,39.0,35,30.09,10.0,SW,15.0,20.7,N/A,,Clear,220,2012-10-11 18:53:00
2:53 PM,69.8,41.0,35,30.06,10.0,South,10.4,18.4,N/A,,Clear,190,2012-10-11 19:53:00
3:53 PM,69.1,39.9,35,30.06,10.0,SW,12.7,-,N/A,,Clear,230,2012-10-11 20:53:00
4:53 PM,69.1,41.0,36,30.06,10.0,SSW,12.7,-,N/A,,Clear,210,2012-10-11 21:53:00
5:53 PM,63.0,44.1,50,30.06,10.0,South,4.6,-,N/A,,Clear,190,2012-10-11 22:53:00
6:53 PM,61.0,43.0,52,30.09,10.0,WSW,3.5,-,N/A,,Clear,240,2012-10-11 23:53:00
7:53 PM,62.6,39.2,42,30.13,10.0,North,16.1,20.7,N/A,,Partly Cloudy,360,2012-10-12 00:53:00
8:53 PM,55.9,37.0,49,30.18,10.0,North,15.0,-,N/A,,Clear,10,2012-10-12 01:53:00
9:53 PM,55.0,37.9,53,30.22,10.0,NNE,11.5,-,N/A,,Overcast,20,2012-10-12 02:53:00
10:53 PM,53.6,35.6,51,30.23,10.0,North,16.1,21.9,N/A,,Overcast,10,2012-10-12 03:53:00
11:53 PM,51.1,34.0,52,30.28,10.0,NNE,13.8,-,N/A,,Overcast,20,2012-10-12 04:53:00